W7TJC Weather Reports


Display with metric or nautical units.
time (UTC)temp
F
wind
direction
speed
MPH
gust
MPH
rain 1hr
in
rain 24hr
in
rain mn
in
humidity
%
barometer
mb
20260507051006 52 120 0.0 0.0 0.00 0.00 0.00 91 1022.1
20260507050502 52 116 0.0 0.0 0.00 0.00 0.00 91 1022.2
20260507045959 52 115 0.0 0.0 0.00 0.00 0.00 91 1022.2
20260507045455 52 100 0.0 0.0 0.00 0.00 0.00 91 1022.1
20260507044953 52 121 0.0 0.0 0.00 0.00 0.00 91 1022.2
20260507044449 52 120 0.0 0.0 0.00 0.00 0.00 91 1022.1
20260507043946 52 115 0.0 0.0 0.00 0.00 0.00 91 1022.1
20260507043442 52 115 0.0 0.0 0.00 0.00 0.00 91 1022.2
20260507042938 52 120 0.0 0.0 0.00 0.00 0.00 91 1022.0
20260507042435 52 115 0.0 0.0 0.00 0.00 0.00 91 1022.1
20260507041931 53 112 0.0 0.0 0.00 0.00 0.00 90 1022.0
20260507041428 53 115 0.0 0.0 0.00 0.00 0.00 90 1022.0
20260507040925 53 113 0.0 0.0 0.00 0.00 0.00 90 1021.9
20260507040421 53 79 0.0 0.0 0.00 0.00 0.00 89 1022.0
20260507035917 53 105 0.0 0.0 0.00 0.00 0.00 89 1022.1
20260507035413 53 108 0.0 0.0 0.00 0.00 0.00 89 1022.0
20260507034910 53 86 0.0 0.0 0.00 0.00 0.00 88 1022.1
20260507034407 53 116 0.0 0.0 0.00 0.00 0.00 87 1021.9
20260507033905 54 120 0.0 0.0 0.00 0.00 0.00 87 1021.9
20260507033403 54 100 0.0 0.0 0.00 0.00 0.00 86 1021.8
20260507032900 54 171 0.0 0.0 0.00 0.00 0.00 86 1021.8
20260507032356 54 115 0.0 0.0 0.00 0.00 0.00 86 1021.9
20260507031852 54 90 0.0 0.0 0.00 0.00 0.00 86 1021.8
20260507031349 54 120 0.0 0.0 0.00 0.00 0.00 85 1021.7
20260507030846 54 110 0.0 0.0 0.00 0.00 0.00 85 1021.9
20260507030344 54 122 0.0 0.0 0.00 0.00 0.00 85 1021.6
20260507025840 54 115 0.0 0.0 0.00 0.00 0.00 85 1021.5
20260507025338 55 120 0.0 0.0 0.00 0.00 0.00 85 1021.7
20260507024835 55 145 0.0 0.0 0.00 0.00 0.00 84 1021.7
20260507024332 55 74 0.0 0.0 0.00 0.00 0.00 84 1021.7
20260507023828 55 133 0.0 0.0 0.00 0.00 0.00 84 1021.5
20260507023325 55 129 0.0 0.0 0.00 0.00 0.00 83 1021.3
20260507022822 55 121 0.0 0.0 0.00 0.00 0.00 83 1021.4
20260507022319 55 147 0.0 0.0 0.00 0.00 0.00 83 1021.3
20260507021815 55 99 0.0 1.0 0.00 0.00 0.00 83 1021.5
20260507021311 55 89 0.0 0.0 0.00 0.00 0.00 83 1021.3
20260507020809 55 124 0.0 0.0 0.00 0.00 0.00 83 1021.6
20260507020305 55 165 1.0 2.0 0.00 0.00 0.00 82 1021.4
20260507015802 56 120 0.0 0.0 0.00 0.00 0.00 82 1021.5
20260507015300 56 104 0.0 0.0 0.00 0.00 0.00 82 1021.4
20260507014756 56 88 0.0 0.0 0.00 0.00 0.00 82 1021.4
20260507014253 56 137 0.0 0.0 0.00 0.00 0.00 82 1021.5
20260507013749 56 97 0.0 0.0 0.00 0.00 0.00 81 1021.5
20260507013247 56 109 0.0 0.0 0.00 0.00 0.00 82 1021.5
20260507012744 57 89 0.0 0.0 0.00 0.00 0.00 81 1021.5
20260507012244 57 104 0.0 0.0 0.00 0.00 0.00 81 1021.5
20260507011743 57 89 0.0 0.0 0.00 0.00 0.00 81 1021.3
20260507011239 57 109 0.0 0.0 0.00 0.00 0.00 81 1021.4
20260507010738 57 150 1.0 1.0 0.00 0.00 0.00 81 1021.2
20260507010235 57 121 0.0 0.0 0.00 0.00 0.00 80 1021.5
20260507005732 57 207 1.0 2.0 0.00 0.00 0.00 81 1021.4
20260507005229 57 96 0.0 1.0 0.00 0.00 0.00 81 1021.3
20260507004725 57 165 2.0 2.0 0.00 0.00 0.00 81 1021.1
20260507004223 57 80 0.0 0.0 0.00 0.00 0.00 81 1021.5
20260507003719 57 155 1.0 1.0 0.00 0.00 0.00 81 1021.3
20260507003214 57 105 0.0 0.0 0.00 0.00 0.00 81 1021.6
20260507002710 57 217 1.0 2.0 0.00 0.00 0.00 80 1021.5
20260507002207 57 50 1.0 1.0 0.00 0.00 0.00 80 1021.6
20260507001703 57 103 0.0 0.0 0.00 0.00 0.00 81 1021.5
20260507001201 56 147 0.0 0.0 0.00 0.00 0.00 80 1021.4
20260507000657 56 108 0.0 0.0 0.00 0.00 0.00 81 1021.5
20260507000153 56 184 0.0 0.0 0.00 0.00 0.00 81 1021.3
20260506235650 56 75 0.0 0.0 0.00 0.00 0.00 81 1021.3
20260506235145 56 139 0.0 1.0 0.00 0.00 0.00 81 1021.5
20260506234643 56 118 0.0 0.0 0.00 0.00 0.00 81 1021.4
20260506234140 57 91 0.0 0.0 0.00 0.00 0.00 80 1021.6
20260506233637 57 108 0.0 0.0 0.00 0.00 0.00 80 1021.4
20260506233134 57 202 2.0 2.0 0.00 0.00 0.00 80 1021.6
20260506232630 57 208 2.0 2.0 0.00 0.00 0.00 80 1021.5
20260506232125 57 97 0.0 0.0 0.00 0.00 0.00 80 1021.5
20260506231623 57 153 1.0 1.0 0.00 0.00 0.00 80 1021.7
20260506231121 57 104 0.0 0.0 0.00 0.00 0.00 80 1021.5
20260506230617 57 94 0.0 0.0 0.00 0.00 0.00 81 1021.6
20260506230115 56 116 0.0 0.0 0.00 0.00 0.00 80 1021.5
20260506225611 56 138 0.0 0.0 0.00 0.00 0.00 81 1021.4
20260506225107 56 202 2.0 2.0 0.00 0.00 0.00 81 1021.7
20260506224604 56 96 0.0 0.0 0.00 0.00 0.00 81 1021.6
20260506224101 56 114 0.0 0.0 0.00 0.00 0.00 81 1021.6
20260506223557 56 83 0.0 0.0 0.00 0.00 0.00 81 1021.7
20260506223053 56 106 0.0 0.0 0.00 0.00 0.00 81 1021.5
20260506222550 56 82 0.0 0.0 0.00 0.00 0.00 81 1021.8
20260506222046 56 151 0.0 0.0 0.00 0.00 0.00 81 1021.4
20260506221544 56 206 1.0 2.0 0.00 0.00 0.00 81 1021.8
20260506221042 55 87 1.0 1.0 0.00 0.00 0.00 81 1021.7
20260506220538 55 174 1.0 1.0 0.00 0.00 0.00 81 1022.0
20260506220033 55 98 0.0 0.0 0.00 0.00 0.00 81 1021.9
20260506215531 55 102 0.0 0.0 0.00 0.00 0.00 81 1021.9
20260506215026 55 178 0.0 1.0 0.00 0.00 0.00 81 1021.6
20260506214524 55 128 0.0 0.0 0.00 0.00 0.00 81 1021.7
20260506214020 55 167 0.0 0.0 0.00 0.00 0.00 81 1021.7
20260506213519 55 145 0.0 0.0 0.00 0.00 0.00 81 1021.7
20260506213015 55 196 1.0 1.0 0.00 0.00 0.00 80 1021.9
20260506212512 55 139 0.0 0.0 0.00 0.00 0.00 81 1021.9
20260506212007 55 131 0.0 0.0 0.00 0.00 0.00 81 1021.8
20260506211503 55 241 2.0 2.0 0.00 0.00 0.00 81 1021.9
20260506211000 55 175 1.0 1.0 0.00 0.00 0.00 80 1021.8
20260506210457 55 95 0.0 0.0 0.00 0.00 0.00 81 1021.8
20260506205954 55 207 1.0 1.0 0.00 0.00 0.00 80 1021.8
20260506205450 55 143 0.0 1.0 0.00 0.00 0.00 80 1021.7
20260506204946 55 102 0.0 0.0 0.00 0.00 0.00 80 1021.8
20260506204444 56 121 0.0 1.0 0.00 0.00 0.00 80 1022.0
20260506203941 55 171 1.0 1.0 0.00 0.00 0.00 80 1021.9
20260506203438 55 223 0.0 1.0 0.00 0.00 0.00 80 1021.8
20260506202935 55 202 1.0 1.0 0.00 0.00 0.00 79 1021.7
20260506202432 56 207 1.0 2.0 0.00 0.00 0.00 79 1021.7
20260506201928 56 121 0.0 0.0 0.00 0.00 0.00 79 1021.7
20260506201426 56 100 0.0 0.0 0.00 0.00 0.00 79 1021.6
20260506200923 55 142 1.0 1.0 0.00 0.00 0.00 80 1021.6
20260506200419 55 206 0.0 0.0 0.00 0.00 0.00 80 1021.6
20260506195915 55 211 1.0 1.0 0.00 0.00 0.00 80 1021.6
20260506195413 55 191 2.0 2.0 0.00 0.00 0.00 79 1021.8
20260506194909 55 198 1.0 2.0 0.00 0.00 0.00 79 1021.6
20260506194406 55 177 1.0 2.0 0.00 0.00 0.00 80 1021.5
20260506193903 55 198 1.0 1.0 0.00 0.00 0.00 80 1021.5
20260506193400 55 213 3.0 3.0 0.00 0.00 0.00 80 1021.6
20260506192856 55 221 2.0 3.0 0.00 0.00 0.00 80 1021.6
20260506192353 55 162 0.0 0.0 0.00 0.00 0.00 81 1021.5
20260506191850 54 153 1.0 2.0 0.00 0.00 0.00 81 1021.4
20260506191347 54 224 4.0 5.0 0.00 0.00 0.00 81 1021.4
20260506190844 55 229 1.0 3.0 0.00 0.00 0.00 80 1021.5
20260506190340 55 214 2.0 2.0 0.00 0.00 0.00 80 1021.5
20260506185837 55 141 0.0 0.0 0.00 0.00 0.00 81 1021.5
20260506185334 54 195 2.0 2.0 0.00 0.00 0.00 80 1021.4
20260506184831 54 188 1.0 1.0 0.00 0.00 0.00 81 1021.4
20260506184328 54 175 3.0 3.0 0.00 0.00 0.00 80 1021.3
20260506183826 54 168 2.0 2.0 0.00 0.00 0.00 80 1021.4
20260506183320 54 128 2.0 3.0 0.00 0.00 0.00 81 1021.2
20260506182818 54 202 4.0 6.0 0.00 0.00 0.00 80 1021.4
20260506182315 54 162 1.0 1.0 0.00 0.00 0.00 80 1021.2
20260506181813 54 117 1.0 2.0 0.00 0.00 0.00 81 1021.5
20260506181310 54 111 1.0 2.0 0.00 0.00 0.00 81 1021.5
20260506180808 54 134 0.0 1.0 0.00 0.00 0.00 82 1021.3
20260506180303 54 217 3.0 3.0 0.00 0.00 0.00 82 1021.3
20260506175800 54 136 0.0 1.0 0.00 0.00 0.00 83 1021.4
20260506175257 53 209 0.0 1.0 0.00 0.00 0.00 83 1021.2
20260506174754 53 178 1.0 1.0 0.00 0.00 0.00 83 1021.0
20260506174251 53 132 0.0 0.0 0.00 0.00 0.00 85 1021.2
20260506173749 53 213 1.0 1.0 0.00 0.00 0.00 85 1021.0
20260506173246 53 209 3.0 3.0 0.00 0.00 0.00 85 1021.1
20260506172742 53 210 1.0 1.0 0.00 0.00 0.00 86 1021.3
20260506172239 53 70 0.0 0.0 0.00 0.00 0.00 86 1021.1
20260506171737 53 224 1.0 2.0 0.00 0.00 0.00 86 1021.3
20260506171233 52 209 1.0 2.0 0.00 0.00 0.00 87 1021.0
20260506170731 52 152 0.0 1.0 0.00 0.00 0.00 87 1021.0
20260506170228 52 99 1.0 1.0 0.00 0.00 0.00 88 1021.2
20260506165726 52 120 0.0 0.0 0.00 0.00 0.00 89 1021.2
20260506165223 52 210 1.0 2.0 0.00 0.00 0.00 90 1021.2
20260506164720 52 222 3.0 3.0 0.00 0.00 0.00 90 1021.3
20260506164217 52 129 1.0 2.0 0.00 0.00 0.00 90 1021.2
20260506163713 52 134 0.0 1.0 0.00 0.00 0.00 90 1021.2
20260506163208 52 159 0.0 0.0 0.00 0.00 0.00 91 1021.0
20260506162705 52 175 1.0 1.0 0.00 0.00 0.00 91 1020.9
20260506162202 52 160 1.0 2.0 0.00 0.00 0.00 91 1020.7
20260506161659 52 193 0.0 0.0 0.00 0.00 0.00 91 1020.8
20260506161156 52 217 2.0 2.0 0.00 0.00 0.00 91 1020.6
20260506160654 52 165 0.0 0.0 0.00 0.00 0.00 91 1020.7
20260506160150 52 105 0.0 0.0 0.00 0.00 0.00 91 1020.5
20260506155649 52 66 0.0 0.0 0.00 0.00 0.00 92 1020.5
20260506155146 52 143 0.0 0.0 0.00 0.00 0.00 92 1020.4
20260506153248 51 157 1.0 1.0 0.00 0.00 0.00 92 1020.9
20260506152745 51 129 0.0 0.0 0.00 0.00 0.00 93 1020.8
20260506152242 51 105 0.0 0.0 0.00 0.00 0.00 92 1020.9
20260506151741 51 123 0.0 0.0 0.00 0.00 0.00 93 1020.7
20260506151237 51 217 0.0 1.0 0.00 0.00 0.00 93 1020.8
20260506150733 51 121 0.0 0.0 0.00 0.00 0.00 93 1020.8
20260506150231 51 167 0.0 1.0 0.00 0.00 0.00 93 1020.9
20260506145728 51 158 0.0 0.0 0.00 0.00 0.00 93 1020.6
20260506145224 51 101 0.0 0.0 0.00 0.00 0.00 93 1020.4
20260506144722 51 106 0.0 0.0 0.00 0.00 0.00 93 1020.3
20260506144219 51 100 0.0 0.0 0.00 0.00 0.00 93 1020.6
20260506143716 51 126 0.0 0.0 0.00 0.00 0.00 93 1020.6
20260506143214 51 129 0.0 0.0 0.00 0.00 0.00 93 1020.6
20260506142712 51 117 0.0 0.0 0.00 0.00 0.00 93 1020.6
20260506142210 51 123 0.0 0.0 0.00 0.00 0.00 93 1020.8
20260506141707 51 151 0.0 0.0 0.00 0.00 0.00 93 1020.6
20260506141206 51 168 0.0 0.0 0.00 0.00 0.00 93 1020.6
20260506140703 51 210 1.0 1.0 0.00 0.00 0.00 94 1020.5
20260506140200 51 92 0.0 0.0 0.00 0.00 0.00 94 1020.3
20260506135657 51 121 0.0 0.0 0.00 0.00 0.00 94 1020.2
20260506135153 51 84 0.0 0.0 0.00 0.00 0.00 94 1020.4
20260506134649 51 132 0.0 0.0 0.00 0.00 0.00 94 1020.5
20260506134145 50 90 0.0 0.0 0.00 0.00 0.00 94 1020.4
20260506133643 50 137 0.0 0.0 0.00 0.00 0.00 94 1020.3
20260506133140 50 187 0.0 0.0 0.00 0.00 0.00 94 1020.4
20260506132637 50 136 0.0 0.0 0.00 0.00 0.00 94 1020.2
20260506132134 50 158 0.0 1.0 0.00 0.00 0.00 94 1020.4
20260506131631 50 175 0.0 0.0 0.00 0.00 0.00 94 1020.5
20260506131127 50 149 0.0 0.0 0.00 0.00 0.00 94 1019.8
20260506130624 50 121 0.0 0.0 0.00 0.00 0.00 94 1020.2
20260506130122 51 148 0.0 0.0 0.00 0.00 0.00 94 1020.1
20260506125620 51 137 1.0 1.0 0.00 0.00 0.00 94 1019.9
20260506125117 51 165 0.0 0.0 0.00 0.00 0.00 93 1019.7
20260506124615 51 84 0.0 0.0 0.00 0.00 0.00 93 1020.0
20260506124113 51 119 0.0 0.0 0.00 0.00 0.00 93 1020.0
20260506123610 51 87 0.0 0.0 0.00 0.00 0.00 93 1019.8
20260506123109 51 161 0.0 0.0 0.00 0.00 0.00 93 1019.8
20260506122605 51 73 0.0 0.0 0.00 0.00 0.00 93 1020.0
20260506122103 51 128 0.0 0.0 0.00 0.00 0.00 93 1019.8
20260506121600 51 111 0.0 0.0 0.00 0.00 0.00 93 1019.7
20260506121056 51 141 0.0 0.0 0.00 0.00 0.00 92 1019.7
20260506120555 51 104 0.0 0.0 0.00 0.00 0.00 92 1019.8
20260506120051 51 120 0.0 0.0 0.00 0.00 0.00 92 1019.9
20260506115549 51 149 0.0 0.0 0.00 0.00 0.00 92 1019.9
20260506115048 51 114 0.0 0.0 0.00 0.00 0.00 91 1019.7
20260506114545 51 125 0.0 0.0 0.00 0.00 0.00 91 1019.8
20260506114043 51 163 0.0 0.0 0.00 0.00 0.00 91 1019.7
20260506113541 51 132 0.0 0.0 0.00 0.00 0.00 91 1019.8
20260506113038 52 209 0.0 0.0 0.00 0.00 0.00 90 1019.4
20260506112534 52 212 0.0 1.0 0.00 0.00 0.00 91 1019.3
20260506112031 52 89 0.0 0.0 0.00 0.00 0.00 91 1019.5
20260506111529 52 119 0.0 0.0 0.00 0.00 0.00 91 1019.3
20260506111026 52 71 0.0 0.0 0.00 0.00 0.00 91 1019.4
20260506110524 52 128 0.0 0.0 0.00 0.00 0.00 91 1019.4
20260506110021 52 127 0.0 0.0 0.00 0.00 0.00 91 1019.5
20260506105517 52 111 0.0 0.0 0.00 0.00 0.00 91 1019.4
20260506105015 52 121 0.0 0.0 0.00 0.00 0.00 90 1019.2
20260506104513 52 123 0.0 0.0 0.00 0.00 0.00 90 1019.3
20260506104010 52 113 0.0 0.0 0.00 0.00 0.00 90 1019.2
20260506103507 52 125 0.0 0.0 0.00 0.00 0.00 90 1019.2
20260506103004 52 110 0.0 0.0 0.00 0.00 0.00 91 1019.3
20260506102502 52 119 0.0 0.0 0.00 0.00 0.00 91 1019.2
20260506101959 52 115 0.0 0.0 0.00 0.00 0.00 91 1019.1
20260506101455 52 93 0.0 0.0 0.00 0.00 0.00 91 1019.0
20260506100953 52 135 0.0 0.0 0.00 0.00 0.00 91 1018.9
20260506100451 52 122 0.0 0.0 0.00 0.00 0.00 91 1019.0
20260506095949 52 123 0.0 0.0 0.00 0.00 0.00 91 1019.0
20260506095447 52 120 0.0 0.0 0.00 0.00 0.00 91 1019.1
20260506094942 52 118 0.0 0.0 0.00 0.00 0.00 91 1019.0
20260506094441 52 124 0.0 0.0 0.00 0.00 0.00 91 1018.9
20260506093939 51 124 0.0 0.0 0.00 0.00 0.00 91 1018.8
20260506093437 51 128 0.0 0.0 0.00 0.00 0.00 91 1018.9
20260506092934 51 119 0.0 0.0 0.00 0.00 0.00 91 1018.8
20260506092432 51 116 0.0 0.0 0.00 0.00 0.00 91 1018.8
20260506091928 51 124 0.0 0.0 0.00 0.00 0.00 91 1018.7
20260506091427 51 127 0.0 0.0 0.00 0.00 0.00 91 1018.9
20260506090923 51 123 0.0 0.0 0.00 0.00 0.00 91 1018.8
20260506090421 51 129 0.0 0.0 0.00 0.00 0.00 91 1018.5
20260506085918 51 123 0.0 0.0 0.00 0.00 0.00 91 1018.7
20260506085414 51 112 0.0 0.0 0.00 0.00 0.00 91 1018.6
20260506084910 51 130 0.0 0.0 0.00 0.00 0.00 91 1018.6
20260506084407 51 130 0.0 0.0 0.00 0.00 0.00 91 1018.6
20260506083904 51 130 0.0 0.0 0.00 0.00 0.00 91 1018.5
20260506083401 51 120 0.0 0.0 0.00 0.00 0.00 91 1018.5
20260506082858 51 116 0.0 0.0 0.00 0.00 0.00 91 1018.5
20260506082355 51 150 0.0 0.0 0.00 0.00 0.00 91 1018.4
20260506081851 51 119 0.0 0.0 0.00 0.00 0.00 90 1018.5
20260506081349 51 103 0.0 0.0 0.00 0.00 0.00 90 1018.6
20260506080847 51 103 0.0 0.0 0.00 0.00 0.00 90 1018.5
20260506080343 51 106 0.0 0.0 0.00 0.00 0.00 89 1018.3
20260506073327 52 115 0.0 0.0 0.00 0.00 0.00 89 1018.1
20260506072824 52 132 0.0 0.0 0.00 0.00 0.00 89 1018.1
20260506072322 52 126 0.0 0.0 0.00 0.00 0.00 89 1018.2
20260506071819 52 126 0.0 0.0 0.00 0.00 0.00 88 1017.9
20260506071317 53 133 0.0 0.0 0.00 0.00 0.00 88 1018.0
20260506070814 53 120 0.0 0.0 0.00 0.00 0.00 88 1018.0
20260506070311 53 117 0.0 0.0 0.00 0.00 0.00 88 1017.9
20260506062248 54 121 0.0 0.0 0.00 0.00 0.00 87 1017.6
20260506061744 54 130 1.0 1.0 0.00 0.00 0.00 86 1017.7
20260506061241 54 153 0.0 0.0 0.00 0.00 0.00 86 1017.7
20260506060739 54 147 0.0 1.0 0.00 0.00 0.00 86 1017.6
20260506060237 54 64 0.0 0.0 0.00 0.00 0.00 86 1017.4